EST,Max TemperatureF,Mean TemperatureF,Min TemperatureF,Max Dew PointF,MeanDew PointF,Min DewpointF,Max Humidity, Mean Humidity, Min Humidity, Max Sea Level PressureIn, Mean Sea Level PressureIn, Min Sea Level PressureIn, Max VisibilityMiles, Mean VisibilityMiles, Min VisibilityMiles, Max Wind SpeedMPH, Mean Wind SpeedMPH, Max Gust SpeedMPH,PrecipitationIn, CloudCover, Events, WindDirDegrees
2012-2-1,42,35,28,39,33,26,100,95,89,30.00,29.82,29.72,10,10,9,15,2,25,0.01,8,Rain-Snow,4
2012-2-2,33,23,12,27,15,8,85,71,57,30.35,30.17,30.00,10,10,9,21,7,28,T,7,Snow,350
2012-2-3,28,18,7,24,14,3,88,73,57,30.46,30.35,30.26,10,10,9,13,2,20,T,8,Snow,357
2012-2-4,28,14,0,25,11,-3,92,73,54,30.33,30.26,30.22,10,10,9,20,5,25,0.01,4,Snow,354
2012-2-5,28,11,-7,16,5,-11,91,71,50,30.26,30.16,30.01,10,10,10,12,1,15,0.00,3,,159
2012-2-6,46,37,27,27,23,16,70,55,40,29.98,29.88,29.78,10,10,10,17,7,24,0.00,3,,243
2012-2-7,39,25,11,27,15,3,75,65,54,30.31,30.10,29.88,10,10,9,18,8,26,T,6,Snow,335
2012-2-8,32,17,2,9,5,-2,87,60,32,30.34,30.20,30.06,10,10,10,8,2,13,0.00,0,,181
2012-2-9,40,24,7,16,12,4,91,64,37,30.08,30.04,29.98,10,10,10,8,0,10,0.00,0,,-1
2012-2-10,40,24,8,20,14,5,92,63,33,30.08,30.00,29.88,10,10,10,10,2,16,0.00,2,,254
2012-2-11,28,17,6,22,12,0,88,74,59,29.88,29.81,29.74,10,10,9,15,6,20,T,6,Snow,10
2012-2-12,11,7,3,1,-6,-9,86,68,49,29.86,29.79,29.72,10,10,9,20,8,28,T,7,Snow,317
2012-2-13,30,21,11,14,10,2,88,65,42,29.92,29.83,29.75,10,10,9,13,4,20,T,7,Snow,357
2012-2-14,37,28,19,21,18,14,84,66,47,30.08,30.02,29.93,10,10,10,12,4,16,0.00,5,,191
2012-2-15,40,33,25,31,27,20,92,76,59,30.27,30.18,30.08,10,10,9,8,1,9,T,8,Snow,327
2012-2-16,43,37,30,32,29,25,100,75,49,30.28,30.11,29.93,10,10,10,8,1,12,T,7,Rain,209
2012-2-17,40,37,33,34,27,20,96,70,44,29.93,29.89,29.84,10,10,9,16,4,25,T,8,Rain-Snow,245
2012-2-18,37,32,26,26,21,16,85,66,47,30.03,29.91,29.86,10,10,9,15,5,21,T,7,Snow,313
2012-2-19,32,24,16,17,15,12,80,64,47,30.13,30.08,30.04,10,10,10,16,5,25,0.00,5,,338
2012-2-20,28,21,13,12,10,7,88,69,50,30.34,30.23,30.11,10,10,10,15,4,22,0.00,2,,359
2012-2-21,39,24,8,28,15,5,92,65,37,30.36,30.11,29.79,10,10,9,17,4,25,0.02,2,Snow,186
2012-2-22,45,38,30,34,30,22,92,66,40,29.75,29.56,29.43,10,10,9,15,4,22,0.10,8,Rain-Snow,192
2012-2-23,38,32,25,34,29,20,96,74,52,29.78,29.50,29.36,10,10,9,17,4,22,0.04,7,Rain-Snow,337
2012-2-24,35,29,23,31,27,20,96,79,61,29.79,29.54,29.21,10,9,9,16,3,24,0.06,6,Snow,189
2012-2-25,33,26,18,31,23,11,92,83,73,29.90,29.34,29.09,10,9,9,20,7,29,0.02,8,Snow,262
2012-2-26,24,14,3,8,3,-2,87,60,32,30.48,30.30,29.96,10,10,9,18,6,28,T,2,Snow,324
2012-2-27,38,18,-3,31,16,-7,91,72,53,30.48,30.19,30.02,10,10,9,16,3,20,0.03,6,Rain-Snow,198
2012-2-28,35,20,4,28,16,1,85,68,50,30.45,30.30,30.06,10,9,9,20,6,29,T,6,Snow,347
2012-2-29,32,17,1,22,11,-2,91,69,47,30.44,30.22,29.94,10,10,9,7,1,12,0.01,4,Snow,120